[Date Prev][Date Next][Thread Prev][Thread Next] - [Date Index][Thread Index][Author Index]

2 Line ISS Keps 11-6



ISS
1 25544U 98067A   03310.92884259  .00032009  00000-0  33972-3 0  7443
2 25544  51.6317  20.5610 0006451 109.0555 244.6496 15.63756488283304


----
Via the sarex mailing list at AMSAT.ORG courtesy of AMSAT-NA.
To unsubscribe, send "unsubscribe sarex" to Majordomo@amsat.org



AMSAT Top AMSAT Home